sat.trackr.live / text

‹ back to catalog

BEIDOU-2 G1

NORAD 36287 · 2010-001A

PAYLOAD ACTIVE UNKNOWN

§ Identity

Operator
Country
PRC
Launch date
2010-01-16
Launch site
XICLF
Launch vehicle
Mass (kg)
RCS (m²)
79.43

Purposes: comms

External: N2YO · Heavens-Above · Gunter

§ Orbital elements

Epoch: 2026-05-24T16:25:55.524288Z

Period
1,436.09 min
Inclination
4.2409°
Eccentricity
0.0003081
Mean motion
1.00272436 rev/d
Perigee alt
35,773.4 km
Apogee alt
35,799.4 km
Semi-major
42,164.5 km
B*
0.0000e+0
RAAN
60.4832°
Arg perigee
298.0651°
Mean anomaly
270.6678°
Rev number
5,993

§ Raw data

BEIDOU-2 G11 36287U 10001A   26144.68467042 -.00000283  00000+0  00000+0 0  99942 36287   4.2409  60.4832 0003081 298.0651 270.6678  1.00272436 59930

JSON: /api/v1/satellites/36287 · /tle

For live sub-satellite position, see the globe view (requires WebGL).

§ Visibility from observer

Set your observer location to see the next 7 days of passes ≥ 10°. The values pass through the URL so the page stays shareable.

No JS? Fill the form by hand. The geolocation button needs JavaScript.